Location: Boca do Mato
(22.9085°S, 43.2930°W)
Time: 22:39:44
(UTC+00:00)

GPS 2-18 Rocket1 - Pass Details

Date: 14 July 2020
Orbit: 459 x 515 km, 20.9° (Epoch: 10 August)

Event Time Altitude Azimuth Distance (km) Brightness Sun altitude
Exits shadow 07:45:22 54° 47° (NE) 601 3.7 -24.5°
Drops below altitude 10° 07:48:41 10° 84° (E) 1,697 6.9 -23.7°
Sets 07:50:57 0° 87° (E) 2,590 8.1 -23.2°
